Location: Chlumec
(49.1171°N, 14.4114°E)
Time: 10:05:31
(UTC+00:00)

Daily predictions for brighter satellites

Satellite Brightness Start Highest point End
(mag) Time Altitude Azimuth Time Altitude Azimuth Time Altitude Azimuth
NOSS 3-2 (C) 4.2 19:14:09 10° NW 19:21:35 88° NE 19:30:10 10° SE
ARGOS Delta rocket 4.3 19:20:43 10° NNE 19:26:06 56° E 19:31:29 10° S
H-2A R/B 2.0 19:23:19 10° NNE 19:27:27 86° WNW 19:31:32 10° SSW
SPOT 5 4.1 19:24:41 10° SE 19:29:22 32° ENE 19:33:58 10° N
CZ-4B R/B 1.2 19:26:51 10° NNE 19:30:06 70° ESE 19:33:16 10° S
ATLAS 3B R/B 4.4 19:24:47 10° NW 19:30:51 29° NNE 19:37:09 10° ENE
Cosmos 1536 3.8 19:27:34 10° N 19:31:12 32° ENE 19:34:50 10° SE
Cosmos 389 Rocket 4.0 19:30:39 10° NNE 19:33:29 23° ENE 19:36:20 10° ESE
Cosmos 968 Rocket 3.6 19:31:21 10° S 19:36:21 53° ESE 19:41:21 10° NNE
Helios 1A Rocket 3.7 19:33:05 10° SE 19:36:45 36° ENE 19:40:26 10° N
Cosmos 1328 Rocket 3.7 19:33:06 10° S 19:37:17 54° E 19:41:31 10° NNE
ERS-1 Rocket 4.0 19:34:16 10° SE 19:38:44 33° ENE 19:43:13 10° N
Cosmos 2263 Rocket 3.8 19:37:26 10° N 19:41:55 24° NE 19:46:21 10° E
USA 238 DEB 4.1 19:34:47 10° NW 19:42:03 77° SW 19:49:42 10° SSE
USA 238 4.0 19:34:54 10° NW 19:42:10 78° SW 19:49:49 10° SSE
Cosmos 405 3.1 19:39:00 10° N 19:42:22 55° ENE 19:45:42 10° SSE
BREEZE-M DEB (TANK) 1.3 19:43:21 10° W 19:45:38 81° N 19:48:22 10° E
CENTAUR R/B 3.8 19:37:51 10° NW 19:45:50 57° WSW 19:54:35 10° SSE
Cosmos 1743 3.4 19:43:49 10° N 19:47:25 39° ENE 19:50:38 12° SE
Cosmos 1544 4.2 19:45:18 10° NNW 19:48:40 42° W 19:52:01 10° SSW
ISS -3.0 19:46:21 10° W 19:49:40 54° N 19:52:58 10° ENE
Cosmos 2233 Rocket 4.4 19:44:04 10° SSW 19:50:22 71° W 19:56:43 10° N
Cosmos 2227 Rocket 2.3 19:45:36 10° NNW 19:51:19 81° ENE 19:56:42 12° SSE
Ariane Rocket 3.2 19:48:01 10° S 19:53:04 72° WSW 19:58:10 10° NNW
Cosmos 1933 Rocket 4.1 19:49:00 10° N 19:53:17 44° ENE 19:57:05 13° SE
SL-4 R/B 2.2 19:49:36 10° WNW 19:54:14 85° NNE 19:58:32 10° ESE
Terra 2.8 19:51:03 11° SE 19:55:04 34° ENE 19:59:22 10° N
SPOT 3 Rocket 3.6 19:50:03 10° SSE 19:55:11 79° ENE 20:00:22 10° NNW
Cosmos 1666 Rocket 4.2 19:51:08 10° NNW 19:55:26 57° W 19:59:45 10° S
Resurs 01 Rocket 2.4 19:52:14 10° S 19:56:30 49° W 20:00:48 10° NNW
EXPRESS MD2 3.5 19:55:04 10° WNW 20:01:16 72° SSW 20:04:03 14° ESE
Cosmos 1656 3.7 19:58:20 10° SSW 20:03:55 89° NW 20:09:28 10° NNE
BREEZE M DEB (TANK) 3.4 20:01:21 10° W 20:04:52 78° SSW 20:16:58 10° ESE
Meteor 1-10 Rocket 4.2 19:59:52 10° S 20:05:24 88° WNW 20:11:03 10° NNE
Genesis I 3.7 20:01:39 10° SW 20:05:39 69° NW 20:09:45 10° NE
Cosmos 1980 Rocket 3.2 20:01:44 12° SSE 20:05:56 26° ESE 20:10:33 10° NE
Cosmos 1340 3.0 20:03:27 12° SSE 20:06:43 44° E 20:10:18 10° NNE
Cosmos 1633 Rocket 3.8 20:04:03 10° NNW 20:08:19 51° W 20:12:32 10° S
Cosmos 1464 Rocket 4.0 20:05:25 10° S 20:11:33 65° E 20:17:40 10° NNE
Cosmos 2360 4.4 20:07:40 10° S 20:13:08 52° ESE 20:18:40 10° NE
Cosmos 1151 Rocket 4.2 20:09:29 10° SSW 20:13:35 43° WNW 20:17:40 10° N
CZ-2C R/B 4.3 20:09:52 10° NNE 20:14:23 42° E 20:18:10 14° SSE
Cosmos 1470 Rocket 3.7 20:10:17 10° NNW 20:14:38 73° W 20:18:43 11° S
BREEZE-M DEB (TANK) 4.0 20:11:54 10° WSW 20:15:39 87° SSE 20:29:16 10° E
Meteor 1-27 Rocket 3.8 20:13:39 10° S 20:19:22 78° E 20:25:15 10° NNE
Cosmos 2228 Rocket 4.2 20:18:18 17° SE 20:20:55 29° E 20:24:53 10° NNE
SJ 16-02 2.6 20:19:14 18° SE 20:21:01 22° E 20:24:26 10° NE
Cosmos 1315 Rocket 4.5 20:17:55 10° NNW 20:21:34 31° W 20:25:10 10° SSW
USA 215 4.0 20:17:52 10° ENE 20:23:23 28° SE 20:28:51 10° S
Cosmos 1486 Rocket 4.0 20:18:37 10° S 20:23:52 66° ESE 20:29:07 10° NNE
Meteor 1-11 Rocket 4.3 20:20:08 10° NNW 20:26:02 63° W 20:31:54 10° S
Cosmos 1092 Rocket 4.5 20:20:27 10° N 20:26:25 46° ENE 20:30:47 18° SE
ASTRO F (AKARI) 4.1 20:24:58 23° SSE 20:26:41 72° ENE 20:29:47 10° N
Cosmos 1697 Rocket 2.7 20:21:11 10° SSW 20:26:48 70° ESE 20:32:27 10° NNE
Spot 2 Rocket 3.5 20:22:55 15° SSE 20:27:08 86° WSW 20:32:14 10° NNW
Timation 2 Rocket 4.3 20:21:53 10° NNW 20:28:23 69° ENE 20:33:34 18° SE
Cosmos 2297 Rocket 3.2 20:23:36 10° NW 20:28:49 39° WSW 20:33:58 10° S
Cosmos 1809 Rocket 4.4 20:24:58 10° N 20:31:08 79° E 20:36:02 17° SSE
Cosmos 1515 Rocket 3.6 20:27:10 10° SSW 20:31:30 79° W 20:35:55 10° N
Nadezhda 4 Rocket 4.0 20:26:43 10° N 20:33:01 83° E 20:38:02 17° SSE
Cosmos 773 Rocket 4.4 20:28:09 10° NNW 20:33:19 53° ENE 20:36:50 20° SE
Meteor 2-9 Rocket 4.4 20:29:33 10° N 20:35:24 68° ENE 20:39:28 20° SSE
BREEZE-M DEB (TANK) 1.5 20:33:26 10° W 20:35:50 87° N 20:37:56 12° E
ARIANE 5 R/B 2.7 20:36:20 21° SSE 20:39:13 69° ENE 20:43:44 10° N
Cosmos 1869 Rocket 3.7 20:37:54 10° N 20:42:23 67° ENE 20:45:03 24° SSE
ATLAS 2AS CENTAUR R/B 3.4 20:40:06 11° S 20:46:49 39° ESE 20:53:43 10° NE
SL-16 R/B 3.8 20:45:49 15° ESE 20:47:01 16° E 20:50:15 10° ENE
NOSS 3-4 (A) 3.3 20:45:18 10° SW 20:51:02 87° NW 20:57:20 10° NE
NOSS 3-4 (C) 3.3 20:45:22 10° SW 20:51:07 88° NW 20:57:25 10° NE
Cosmos 1503 Rocket 4.0 20:47:24 13° S 20:52:06 69° ESE 20:57:24 10° NNE
SAR-Lupe-1 4.4 20:49:07 10° NNE 20:52:37 47° E 20:53:55 31° SSE
Cosmos 44 Rocket 4.2 20:49:04 10° NNW 20:53:31 39° NE 20:56:57 16° ESE
ATLAS CENTAUR R/B 4.4 20:52:31 10° NNW 20:55:35 16° NNE 20:58:37 10° NE
Aureole 1 Rocket 2.6 20:53:00 10° SSW 20:56:15 63° WNW 20:59:15 10° NNE
Cosmos 2026 Rocket 4.1 20:52:33 10° N 20:58:40 66° ENE 21:02:33 24° SSE
Cosmos 2219 4.3 20:54:47 10° NW 20:59:54 37° WSW 21:03:54 15° SSW
USA 267 3.6 20:54:03 10° ESE 21:00:30 64° NNE 21:06:57 10° NW
Cosmos 921 Rocket 3.3 20:56:27 10° NNW 21:00:58 67° WSW 21:03:26 26° S
Cosmos 1378 3.4 20:59:52 33° SE 21:01:03 47° E 21:04:36 10° NNE
Cosmos 1346 Rocket 3.9 21:00:20 26° ESE 21:01:20 30° E 21:04:52 10° NNE
RESURS DK-1 3.2 21:00:59 29° SE 21:01:43 31° ESE 21:05:22 10° NE
Cosmos 2278 4.0 21:00:40 23° S 21:03:51 45° ESE 21:09:14 10° NE
Cosmos 482 Debris 4.1 21:01:20 10° WNW 21:04:27 82° NNE 21:07:48 18° ESE
SPOT 5 4.0 21:03:09 15° SSW 21:07:17 43° W 21:12:17 10° NNW
Cosmos 389 Rocket 4.2 21:04:57 10° NW 21:07:53 26° W 21:10:02 15° SW
Cosmos 1627 Rocket 4.5 21:03:00 10° N 21:09:13 80° E 21:13:05 25° SSE
Cosmos 2082 4.1 21:04:58 10° NW 21:10:29 56° WSW 21:13:46 24° S
Cosmos 1707 Rocket 3.9 21:08:54 31° SSE 21:10:40 49° E 21:14:57 10° NNE
Cosmos 2034 Rocket 4.3 21:05:04 11° SSW 21:11:06 69° WNW 21:17:28 10° N
SL-24 R/B - RUBIN 2 4.3 21:07:27 10° NNW 21:11:41 46° NE 21:14:22 21° ESE
Cosmos 1184 Rocket 4.3 21:09:25 13° SW 21:11:44 30° WNW 21:14:29 10° N
Cosmos 2292 Rocket 2.7 21:12:55 10° NNW 21:16:15 75° W 21:16:59 47° S
ERS-1 Rocket 4.0 21:13:55 16° SSW 21:17:27 38° W 21:22:10 10° NNW
Okean 1 3.8 21:14:48 19° SSW 21:17:29 56° WNW 21:21:28 10° N
Cosmos 2360 Rocket 4.1 21:18:39 13° ESE 21:19:25 13° E 21:21:51 10° ENE
Geosat 4.3 21:17:27 27° S 21:20:03 56° WSW 21:25:01 10° NW
Cosmos 158 Rocket 3.9 21:16:47 10° NNW 21:21:54 77° ENE 21:24:25 31° SSE
Meteor 1-19 Rocket 4.4 21:17:59 15° SSW 21:22:30 68° WNW 21:27:55 10° N
ATLAS 3B R/B 3.3 21:15:49 10° NW 21:23:02 60° NE 21:29:10 16° ESE
Cosmos 2263 Rocket 2.1 21:20:53 10° NNW 21:26:31 80° WSW 21:29:18 31° SSE
ISS -3.6 21:23:18 10° WNW 21:26:40 73° NNE 21:28:01 33° E
Cosmos 2344 3.5 21:23:12 10° SW 21:30:39 84° NW 21:38:33 10° NE
Terra 3.1 21:29:55 18° SSW 21:32:48 33° W 21:37:08 10° NNW
SL-4 R/B 3.0 21:29:32 10° W 21:33:29 32° SW 21:34:00 31° SSW
Spot 4 4.3 21:32:31 29° SE 21:34:38 50° ENE 21:39:16 10° N
Cosmos 2227 Rocket 4.2 21:30:54 10° WNW 21:34:40 18° W 21:38:25 10° SW
Cosmos 1441 Rocket 3.9 21:34:50 33° ESE 21:35:12 34° E 21:38:36 10° NNE
Cosmos 1975 3.1 21:31:42 10° NNW 21:35:44 60° W 21:37:13 35° SSW
ALOS 2 3.7 21:37:55 24° ESE 21:39:40 34° ENE 21:43:39 10° N
Meteor 2-4 Rocket 3.8 21:37:44 25° SSW 21:41:17 86° WNW 21:47:01 10° N
Cosmos 1733 Rocket 3.0 21:37:41 10° N 21:42:10 87° W 21:43:44 40° S
Cosmos 2279 Rocket 4.0 21:39:47 30° S 21:42:59 70° E 21:49:11 10° NNE
GRACE-FO 1 4.4 21:41:29 10° N 21:45:07 83° E 21:45:48 56° S
GRACE-FO 2 4.4 21:41:55 10° N 21:45:32 84° E 21:46:14 56° S
Cosmos 2333 Rocket 4.2 21:44:57 11° ESE 21:45:47 12° E 21:47:41 10° ENE
Cosmos 2369 4.4 21:41:37 10° SW 21:47:08 54° NW 21:52:43 10° NNE
Cosmos 1908 Rocket 4.3 21:44:30 10° N 21:48:38 41° ENE 21:49:57 32° ESE
Cosmos 1980 Rocket 2.7 21:44:00 10° SW 21:49:33 58° WNW 21:55:10 10° NNE
Meteor 2-8 Rocket 4.5 21:47:02 25° SSW 21:50:48 79° W 21:56:56 10° N
Cosmos 1862 Rocket 3.5 21:51:03 42° S 21:52:32 81° E 21:57:02 10° NNE
Meteor 2-10 4.4 21:48:54 10° N 21:54:12 55° ENE 21:56:21 33° SE
Cosmos 2322 Rocket 2.9 21:53:11 32° SE 21:54:37 37° ESE 21:59:44 10° NE
Cosmos 1805 3.3 21:50:50 10° N 21:54:43 64° ENE 21:55:31 50° SE
ERS-2 3.2 21:55:08 10° NE 21:58:20 30° E 21:58:20 30° E
Cosmos 2180 Rocket 4.5 21:55:49 33° S 21:58:42 70° E 22:04:48 10° NNE
SJ 16-02 2.3 21:56:08 16° SW 21:59:18 43° WNW 22:03:31 10° N
H-2A R/B 3.8 21:57:04 10° NNE 22:01:02 47° E 22:01:37 43° SE
Cosmos 1766 4.0 21:58:32 10° N 22:02:16 41° ENE 22:03:05 36° ESE
NOSS 2-1 (C) 3.8 22:03:35 34° E 22:03:35 34° E 22:05:48 10° NE
NOSS 2-1 (D) 3.7 22:05:14 35° E 22:05:14 35° E 22:07:29 10° NE
Cosmos 1777 Rocket 4.4 22:01:35 19° SW 22:05:16 60° WNW 22:10:28 10° NNE
Meteor 1-12 Rocket 4.4 22:00:33 10° N 22:06:32 69° ENE 22:09:11 34° SSE
USA 215 3.2 22:00:25 10° ENE 22:07:01 82° SE 22:13:36 10° SW
Cosmos 1844 Rocket 3.2 22:02:52 10° NNW 22:08:23 54° NE 22:11:23 26° ESE
Cosmos 1356 3.4 22:09:53 62° E 22:09:53 62° E 22:13:04 10° NNE
CZ-4C R/B 4.1 22:03:45 10° NW 22:09:54 37° NNE 22:17:11 10° E
Iridium 2 4.1 22:06:26 10° NNW 22:10:06 52° W 22:10:50 44° SW
Cosmos 2227 4.5 22:04:33 10° NW 22:10:11 57° WSW 22:12:24 35° S
Cosmos 1844 4.3 22:10:00 10° NNW 22:15:42 54° NE 22:19:02 24° ESE
Meteor 1-4 Rocket 2.4 22:12:45 10° NNW 22:16:11 70° W 22:16:23 67° SW
Meteor 1-13 Rocket 4.2 22:14:45 38° S 22:16:59 76° E 22:22:34 10° NNE
Cosmos 1726 2.4 22:15:35 10° N 22:19:12 54° ENE 22:19:37 50° ESE
Cosmos 1655 Rocket 4.0 22:14:28 10° N 22:20:47 82° E 22:23:33 36° SSE
Cosmos 2237 4.4 22:19:28 38° SSE 22:21:18 54° ESE 22:26:53 10° NE
Cosmos 2219 Rocket 3.8 22:25:00 18° ESE 22:26:03 19° E 22:29:51 10° ENE
Iridium 4 Rocket 3.1 22:24:57 10° N 22:29:20 85° W 22:30:35 49° S
SL-16 R/B 2.1 22:27:38 33° SSW 22:30:16 88° SE 22:36:00 10° NNE
Cosmos 1733 3.7 22:29:16 10° NNW 22:32:55 45° W 22:33:22 42° WSW
Cosmos 44 Rocket 3.8 22:30:40 10° NW 22:35:02 38° WSW 22:35:37 37° SW
ATLAS CENTAUR R/B 2.9 22:30:59 10° NNW 22:35:39 41° NE 22:39:13 15° ESE
ATLAS 2AS CENTAUR R/B 3.3 22:29:47 10° SW 22:37:33 67° NW 22:45:01 10° NE
Cosmos 1707 4.2 22:37:18 24° E 22:37:40 24° E 22:40:50 10° NE
Cosmos 1470 3.5 22:35:11 10° N 22:38:55 42° ENE 22:39:37 38° ESE
COSMOS 2428 4.4 22:37:38 16° ESE 22:38:56 17° E 22:42:32 10° ENE
RESURS DK-1 3.9 22:36:47 15° WSW 22:39:40 33° NW 22:43:27 10° NNE
ADEOS Rocket 2.8 22:40:53 38° SSE 22:43:09 84° ENE 22:49:02 10° NNW
USA 267 3.3 22:40:37 33° SSE 22:43:35 58° SW 22:50:03 10° WNW
Meteor 1-22 Rocket 4.3 22:42:20 10° N 22:48:12 80° ENE 22:50:43 37° SSE
PSLV R/B 4.2 22:44:24 10° NNE 22:48:30 41° E 22:49:15 38° SE
Okean 1-7 3.3 22:54:08 44° SW 22:55:17 62° WNW 22:59:39 10° N
GENESIS II 4.4 22:55:49 46° WSW 22:56:48 67° NW 23:00:44 10° NE
Cosmos 923 Rocket 4.3 22:52:25 10° NNW 22:57:37 54° WSW 22:59:07 41° SSW
Cosmos 372 Rocket 4.5 22:57:29 38° SE 22:58:42 45° ESE 23:03:37 10° NE
Cosmos 1703 Rocket 3.9 23:00:19 42° SW 23:01:33 58° WNW 23:05:58 10° N
Cosmos 2360 Rocket 2.1 23:00:22 41° SSW 23:02:25 77° ESE 23:08:06 10° NNE
ISS -1.3 23:00:16 10° W 23:00:55 14° W 23:00:55 14° W
Cosmos 1242 Rocket 3.7 23:00:36 10° N 23:03:57 34° ENE 23:04:40 31° E
Okean 2 4.4 23:04:11 30° ESE 23:04:52 32° E 23:08:32 10° NNE
Cosmos 1842 3.1 23:06:04 67° SSW 23:06:33 83° W 23:10:28 10° N
Cosmos 1818 3.5 23:01:09 10° NW 23:06:40 88° NE 23:09:12 33° SE
Cosmos 2263 Rocket 4.2 23:06:55 10° WNW 23:09:29 13° W 23:10:59 12° WSW
Cosmos 2242 Rocket 3.9 23:09:15 43° SW 23:10:31 62° WNW 23:15:05 10° N
STPSAT 2 (USA 217) 4.5 23:10:36 54° SSW 23:11:34 81° ESE 23:16:05 10° NNE
ASTEX 1 3.5 23:08:32 10° NNE 23:13:24 63° E 23:14:54 42° SSE
ATLAS 3B R/B 3.4 23:06:48 10° NW 23:13:40 43° WSW 23:16:23 32° SSW
Cosmos 1908 4.4 23:10:50 10° N 23:14:18 33° ENE 23:15:21 28° ESE
Cosmos 2278 Rocket 3.8 23:09:42 10° NNW 23:14:46 32° NE 23:19:49 10° ESE
Cosmos 1782 Rocket 4.0 23:10:39 10° NNW 23:14:50 48° W 23:15:37 43° SW
NOSS 3-1 (C) 4.1 23:07:38 10° NW 23:14:55 81° NE 23:23:32 10° SE
Cosmos 1937 Rocket 3.4 23:13:31 43° SSW 23:15:16 84° ESE 23:20:35 10° NNE
ALOS 2 3.8 23:15:18 28° WSW 23:16:02 29° W 23:19:53 10° NNW
NOSS 2-1 (E) 4.1 23:15:19 29° W 23:16:17 38° NW 23:19:28 10° NNE
Cosmos 1238 Rocket 3.5 23:14:12 10° N 23:16:53 30° ENE 23:16:56 30° ENE
SL-16 R/B 4.5 23:12:45 10° ESE 23:17:32 24° NE 23:22:19 10° N
Cosmos 2151 Rocket 4.2 23:13:27 10° N 23:17:44 47° ENE 23:19:15 33° SE
SL-08 ROCKET BODY 4.3 23:12:03 10° N 23:18:00 86° W 23:20:23 38° S
Cosmos 2112 Rocket 4.2 23:13:09 10° NNW 23:18:23 56° WSW 23:19:51 42° SSW
In-Cosmos 22 4.5 23:17:33 36° SSE 23:19:39 58° E 23:25:05 10° NNE
Cosmos 1680 Rocket 4.0 23:16:02 10° NNW 23:21:05 46° WSW 23:22:23 38° SW
Okean 2 Rocket 3.4 23:18:35 10° N 23:23:04 61° ENE 23:24:32 39° SE
Okean 3 4.5 23:26:58 31° WSW 23:28:07 37° WNW 23:32:04 10° N
Cosmos 2333 Rocket 2.2 23:26:56 40° S 23:28:59 71° ESE 23:34:39 10° NNE
Cosmos 1900 4.3 23:27:26 44° SSW 23:29:00 76° SE 23:34:09 10° NE
ERS-2 3.9 23:28:43 10° N 23:31:38 23° WNW 23:32:44 20° W
Cosmos 2322 3.9 23:32:07 38° S 23:34:09 58° ESE 23:39:47 10° NE
Cosmos 1898 Rocket 4.1 23:35:22 27° WSW 23:37:59 51° WNW 23:43:11 10° NNE
Cosmos 2322 Rocket 3.1 23:34:57 19° WSW 23:38:36 43° NW 23:43:58 10° NNE
Cosmos 1300 Rocket 3.9 23:35:10 10° NNW 23:39:22 50° W 23:40:11 43° SW
Sich 1 Rocket 3.5 23:36:37 10° NNW 23:41:01 72° W 23:42:02 50° SSW
Resurs 1-4 Rocket 3.7 23:42:22 10° NE 23:46:39 25° E 23:49:28 16° SE
USA 215 4.0 23:43:31 10° ENE 23:49:50 53° NNW 23:56:10 10° W
Cosmos 1461 3.1 23:46:18 10° NW 23:50:26 71° NE 23:52:53 24° SE
Cosmos 1844 Rocket 3.7 23:47:16 10° NW 23:51:57 28° WSW 23:53:02 26° WSW
Gblst 52 Del rocket 4.1 23:49:00 25° SW 23:52:36 74° SSE 23:58:10 10° ENE
Cosmos 1726 4.5 23:52:07 10° WNW 23:53:44 12° W 23:53:54 12° W
